FW5819 Weather Reports


time (UTC)temp
C
wind
direction
speed
KPH
gust
KPH
rain 1hr
cm
rain 24hr
cm
rain mn
cm
humidity
%
barometer
mb
20260903060043 24 0 0.0 6.4 0.00 0.00 0.00 80 1016.2
20260903054541 25 327 1.6 12.9 0.00 0.00 0.00 79 1016.4
20260903053042 26 337 4.8 27.4 0.00 0.00 0.00 78 1016.7
20260903051552 27 0 1.6 11.3 0.00 0.00 0.00 80 1015.2
20260903050049 27 285 1.6 9.7 0.00 0.00 0.00 80 1014.9
20260903044546 27 265 3.2 9.7 0.00 0.00 0.00 80 1014.6
20260903043042 27 249 1.6 6.4 0.00 0.00 0.00 79 1014.4
20260903041544 27 177 1.6 12.9 0.00 0.00 0.00 79 1014.1
20260903040047 27 239 3.2 16.1 0.00 0.00 0.00 80 1014.1
20260903034541 27 0 1.6 12.9 0.00 0.00 0.00 80 1013.9
20260903033047 26 212 1.6 9.7 0.00 0.00 0.00 80 1013.8
20260903031544 26 223 1.6 9.7 0.00 0.00 0.00 80 1013.4
20260903030042 26 0 1.6 8.0 0.00 0.00 0.00 80 1013.9
20260903024543 26 182 1.6 8.0 0.00 0.00 0.00 80 1014.2
20260903023058 27 0 1.6 8.0 0.00 0.00 0.00 80 1014.4
20260903021547 27 229 0.0 16.1 0.00 0.00 0.00 80 1014.3
20260903020044 27 0 0.0 4.8 0.00 0.00 0.00 79 1014.5
20260903014542 27 121 0.0 3.2 0.00 0.00 0.00 79 1014.8
20260903013040 27 0 0.0 6.4 0.00 0.00 0.00 79 1014.7
20260903011542 27 223 0.0 6.4 0.00 0.00 0.00 80 1014.6
20260903010043 27 0 0.0 3.2 0.00 0.00 0.00 80 1014.4
20260903004541 27 0 0.0 0.0 0.00 0.00 0.00 80 1014.5
20260903003048 27 0 0.0 0.0 0.00 0.00 0.00 77 1014.5
20260903001544 28 0 0.0 3.2 0.00 0.00 0.00 75 1014.4
20260903000042 29 0 0.0 4.8 0.00 0.00 0.00 73 1014.4
20260902234540 30 170 1.6 6.4 0.00 0.00 0.00 71 1014.5
20260902233043 31 200 0.0 6.4 0.00 0.00 0.00 70 1014.4
20260902231556 31 0 0.0 6.4 0.00 0.00 0.00 68 1014.3
20260902230041 32 173 1.6 11.3 0.00 0.00 0.00 67 1014.1
20260902224542 32 241 3.2 11.3 0.00 0.00 0.00 65 1014.2
20260902223044 33 277 1.6 9.7 0.00 0.00 0.00 64 1014.1
20260902221552 33 234 3.2 14.5 0.00 0.00 0.00 63 1014.3
20260902220045 33 208 4.8 11.3 0.00 0.00 0.00 63 1014.3
20260902214546 33 248 1.6 14.5 0.00 0.00 0.00 63 1014.5
20260902213049 33 284 3.2 16.1 0.00 0.00 0.00 62 1014.3
20260902211548 34 256 4.8 11.3 0.00 0.00 0.00 63 1014.5
20260902210042 34 195 4.8 14.5 0.00 0.00 0.00 62 1014.7
20260902204541 34 277 4.8 11.3 0.00 0.00 0.00 62 1014.8
20260902203044 34 192 6.4 19.3 0.00 0.00 0.00 60 1014.9
20260902201544 34 229 3.2 14.5 0.00 0.00 0.00 62 1015.1
20260902200045 34 224 4.8 16.1 0.00 0.00 0.00 62 1015.2
20260902194541 34 232 4.8 11.3 0.00 0.00 0.00 64 1015.3
20260902193053 34 259 3.2 12.9 0.00 0.00 0.00 64 1015.5
20260902191541 33 321 4.8 14.5 0.00 0.00 0.00 66 1015.6
20260902190043 34 279 6.4 16.1 0.00 0.00 0.00 63 1015.7
20260902184542 34 221 3.2 12.9 0.00 0.00 0.00 66 1015.8
20260902183048 34 309 3.2 8.0 0.00 0.00 0.00 65 1016.0
20260902181546 33 99 4.8 9.7 0.00 0.00 0.00 66 1016.1
20260902180040 33 252 6.4 14.5 0.00 0.00 0.00 65 1016.2
20260902174551 33 45 3.2 6.4 0.00 0.00 0.00 68 1016.4
20260902173041 32 271 4.8 11.3 0.00 0.00 0.00 68 1016.6
20260902171540 32 257 1.6 9.7 0.00 0.00 0.00 67 1016.9
20260902170042 32 277 1.6 6.4 0.00 0.00 0.00 69 1017.2
20260902164545 32 292 3.2 9.7 0.00 0.00 0.00 66 1017.0
20260902163041 32 240 3.2 9.7 0.00 0.00 0.00 67 1017.2
20260902161541 32 128 1.6 8.0 0.00 0.00 0.00 67 1017.1
20260902160050 32 252 1.6 6.4 0.00 0.00 0.00 68 1017.2
20260902154559 31 251 1.6 8.0 0.00 0.00 0.00 69 1017.3
20260902153041 31 209 3.2 6.4 0.00 0.00 0.00 71 1017.4
20260902151543 31 292 1.6 6.4 0.00 0.00 0.00 74 1017.3
20260902150041 30 281 1.6 8.0 0.00 0.00 0.00 73 1017.4
20260902144542 30 250 1.6 6.4 0.00 0.00 0.00 75 1017.4
20260902143040 29 194 1.6 6.4 0.00 0.00 0.00 76 1017.2
20260902141542 28 163 3.2 11.3 0.00 0.00 0.00 78 1017.1
20260902140046 28 270 3.2 11.3 0.00 0.00 0.00 79 1016.9
20260902134545 28 258 1.6 11.3 0.00 0.00 0.00 80 1017.0
20260902133040 28 236 3.2 8.0 0.00 0.00 0.00 80 1016.8
20260902131541 27 274 1.6 9.7 0.00 0.00 0.00 82 1017.0
20260902130043 27 225 3.2 9.7 0.00 0.00 0.00 83 1017.0
20260902124543 27 284 1.6 8.0 0.00 0.00 0.00 85 1016.9
20260902123040 26 267 3.2 6.4 0.00 0.00 0.00 87 1017.1
20260902121540 25 254 1.6 4.8 0.00 0.00 0.00 90 1017.0
20260902120331 24 0 0.0 3.2 0.00 0.00 0.00 91 1016.9
20260902120044 24 0 0.0 3.2 0.00 0.00 0.00 91 1016.9
20260902114610 23 166 0.0 4.8 0.00 0.00 0.00 91 1016.7
20260902113048 23 207 0.0 3.2 0.00 0.00 0.00 91 1016.6
20260902111540 23 0 0.0 3.2 0.00 0.00 0.00 91 1016.5
20260902110046 23 219 0.0 4.8 0.00 0.00 0.00 91 1016.2
20260902104543 23 0 0.0 3.2 0.00 0.00 0.00 91 1016.2
20260902103052 23 196 0.0 4.8 0.00 0.00 0.00 91 1016.2
20260902101543 23 0 0.0 4.8 0.00 0.00 0.00 91 1016.1
20260902100104 23 0 0.0 6.4 0.00 0.00 0.00 92 1016.3
20260902094541 23 0 0.0 3.2 0.00 0.00 0.00 91 1016.2
20260902093104 23 173 1.6 6.4 0.00 0.00 0.00 92 1016.4
20260902092019 23 194 0.0 9.7 0.00 0.00 0.00 92 1016.3
20260902090039 23 0 0.0 4.8 0.00 0.00 0.00 92 1016.3
20260902084544 23 142 0.0 4.8 0.00 0.00 0.00 92 1016.4
20260902083043 23 0 0.0 3.2 0.00 0.00 0.00 92 1016.4
20260902081548 23 0 0.0 1.6 0.00 0.00 0.00 93 1016.3
20260902080041 23 0 0.0 0.0 0.00 0.00 0.00 93 1016.2
20260902074542 23 0 0.0 0.0 0.00 0.00 0.00 93 1016.1
20260902073039 23 0 0.0 3.2 0.00 0.00 0.00 93 1016.2
20260902071546 23 0 0.0 1.6 0.00 0.00 0.00 93 1016.2
20260902070044 23 0 0.0 1.6 0.00 0.00 0.00 93 1016.2
20260902064544 22 0 0.0 1.6 0.00 0.00 0.00 93 1016.3
20260902063043 22 0 0.0 0.0 0.00 0.00 0.00 92 1016.4
20260902061553 22 0 0.0 0.0 0.00 0.00 0.00 92 1016.4